This is the latest recevied weather packets stored in our database for station/object N5COP-13. If no packets are shown the sender has not sent any weather packets the latest 10 day(s).
| Time | Temp. | Humidity | Pressure | Rain* | Wind** | Luminosity | Snow |
|---|---|---|---|---|---|---|---|
| 1778018939 | 18.33° C | 38% | 1009.3 hPa | 0 mm | - | 268 W/m² | - |
| 1778018636 | 18.33° C | 38% | 1009.5 hPa | 0 mm | - | 277 W/m² | - |
| 1778018334 | 18.33° C | 38% | 1009.6 hPa | 0 mm | - | 322 W/m² | - |
| 1778018032 | 17.78° C | 39% | 1009.5 hPa | 0 mm | - | 329 W/m² | - |
| 1778017730 | 18.33° C | 38% | 1009.5 hPa | 0 mm | - | 360 W/m² | - |
| 1778017427 | 18.33° C | 38% | 1009.7 hPa | 0 mm | - | 413 W/m² | - |
| 1778017124 | 18.33° C | 38% | 1009.8 hPa | 0 mm | - | 408 W/m² | - |
| 1778016822 | 18.33° C | 37% | 1009.8 hPa | 0 mm | - | 367 W/m² | - |
| 1778016517 | 18.89° C | 37% | 1010.3 hPa | 0 mm | - | 368 W/m² | - |
| 1778016214 | 18.89° C | 38% | 1010.2 hPa | 0 mm | - | 390 W/m² | - |
| 1778015910 | 18.33° C | 38% | 1010.4 hPa | 0 mm | - | 385 W/m² | - |
| 1778015609 | 18.33° C | 39% | 1010.5 hPa | 0 mm | - | 701 W/m² | - |
| 1778015305 | 17.78° C | 39% | 1010.6 hPa | 0 mm | - | 451 W/m² | - |
| 1778015002 | 17.78° C | 39% | 1010.8 hPa | 0 mm | - | 381 W/m² | - |
| 1778014699 | 17.78° C | 39% | 1010.7 hPa | 0 mm | - | 441 W/m² | - |
| 1778014397 | 17.22° C | 39% | 1010.7 hPa | 0 mm | - | 378 W/m² | - |
| 1778014093 | 17.78° C | 39% | 1010.9 hPa | 0 mm | - | 423 W/m² | - |
| 1778013791 | 18.33° C | 39% | 1011.3 hPa | 0 mm | - | 370 W/m² | - |
| 1778013489 | 17.78° C | 38% | 1011.2 hPa | 0 mm | - | 459 W/m² | - |
| 1778013185 | 17.78° C | 39% | 1011.1 hPa | 0 mm | - | 468 W/m² | - |
| 1778012881 | 17.78° C | 39% | 1011.1 hPa | 0 mm | - | 557 W/m² | - |
| 1778012577 | 17.78° C | 39% | 1011.2 hPa | 0 mm | - | 404 W/m² | - |
| 1778012274 | 17.78° C | 39% | 1010.9 hPa | 0 mm | - | 526 W/m² | - |
| 1778011972 | 18.33° C | 38% | 1010.9 hPa | 0 mm | - | 361 W/m² | - |
| 1778011670 | 18.33° C | 39% | 1011.2 hPa | 0 mm | - | 373 W/m² | - |
* Rain latest hour (hover to see other rain measurements)
** Current wind speed in m/s (hover to see current wind gust speed)